�N����,����,����,����,����,�C��,���x,�~����,���Ǝ���,�S�V����,�ő�u�ԕ���,,,
,,,,,,,,,,����,����,����,�N��
yyyy/mm/dd,hh:mm:ss,(16),16����,m/s,��,%,mm,min,KW/�u,(16),16����,m/s,Time
2012/6/1,1:00:00,293,���k��,1,5.4,98.3,0,0,0,270,��,1.8,59
2012/6/1,2:00:00,270,��,1.7,4.9,98.5,0,0,0,293,���k��,2.4,17
2012/6/1,3:00:00,270,��,1.1,5.2,98.7,0,0,0,270,��,2.8,43
2012/6/1,4:00:00,270,��,1.5,6,98.7,0,0,0.01,270,��,2.7,56
2012/6/1,5:00:00,293,���k��,1.4,8.8,94.9,0,10,0.07,293,���k��,4,41
2012/6/1,6:00:00,360,�k,0.6,12.7,81.1,0,60,0.21,248,���쐼,2.1,1
2012/6/1,7:00:00,135,�쓌,1.1,15,76,0,60,0.38,135,�쓌,2.7,56
2012/6/1,8:00:00,113,���쓌,1.3,16.5,76.8,0,60,0.47,158,��쓌,2.5,17
2012/6/1,9:00:00,135,�쓌,2.4,15.3,73.8,0,60,0.62,113,���쓌,3.8,7
2012/6/1,10:00:00,158,��쓌,2.8,13.7,82.4,0,60,0.52,158,��쓌,4.5,18
2012/6/1,11:00:00,113,���쓌,3.3,13.8,81.3,0,60,0.52,113,���쓌,5.4,50
2012/6/1,12:00:00,113,���쓌,2.9,14.3,73.9,0,60,0.91,90,��,5.5,4
2012/6/1,13:00:00,90,��,3.2,15.4,72.4,0,60,0.9,113,���쓌,5.1,57
2012/6/1,14:00:00,90,��,4,14.6,76.6,0,60,0.88,90,��,6.3,23
2012/6/1,15:00:00,113,���쓌,3.7,13.3,77.9,0,60,0.75,158,��쓌,6.5,49
2012/6/1,16:00:00,135,�쓌,2.8,12.8,73.8,0,60,0.56,135,�쓌,5.9,59
2012/6/1,17:00:00,158,��쓌,1.8,11.9,80.5,0,57,0.31,158,��쓌,5.5,7
2012/6/1,18:00:00,158,��쓌,1.6,11.3,82.1,0,33,0.13,158,��쓌,3.5,1
2012/6/1,19:00:00,180,��,0.7,10,88.1,0,0,0.04,135,�쓌,2.3,9
2012/6/1,20:00:00,225,�É�,0,8.1,94.4,0,0,0,225,�쐼,1.3,12
2012/6/1,21:00:00,90,��,2.4,7.7,95.5,0,0,0,113,���쓌,3,58
2012/6/1,22:00:00,90,��,3.6,8.3,93.6,0,0,0,113,���쓌,6.3,59
2012/6/1,23:00:00,113,���쓌,4.1,7.7,93.3,0,0,0,90,��,7,10
2012/6/1,0:00:00,90,��,2.9,7.3,94.5,0,0,0,90,��,5.5,5
2012/6/2,1:00:00,113,���쓌,2.5,7.1,95.4,0,0,0,113,���쓌,4.1,11
2012/6/2,2:00:00,90,��,2.2,7,96.7,0,0,0,90,��,3.4,4
2012/6/2,3:00:00,113,���쓌,1.5,7,98,0,0,0,90,��,3.1,0
2012/6/2,4:00:00,158,�É�,0.2,7.1,97.8,0,0,0,113,���쓌,2.1,23
2012/6/2,5:00:00,113,���쓌,0.9,7.2,97.8,0,0,0.02,135,�쓌,1.3,52
2012/6/2,6:00:00,113,���쓌,1,7.6,98,0,0,0.05,113,���쓌,2.1,43
2012/6/2,7:00:00,135,�쓌,0.9,7.6,97.2,0,0,0.09,135,�쓌,1.9,42
2012/6/2,8:00:00,135,�쓌,1.6,8,97,0,52,0.15,135,�쓌,3.2,8
2012/6/2,9:00:00,135,�쓌,1.1,8.6,95.1,0,60,0.21,135,�쓌,2.8,33
2012/6/2,10:00:00,113,���쓌,2.8,8.8,90.4,0,60,0.27,113,���쓌,4.2,53
2012/6/2,11:00:00,135,�쓌,2.5,9.6,85.4,0,60,0.46,135,�쓌,5,55
2012/6/2,12:00:00,158,��쓌,2.8,9.3,82.6,0,60,0.51,135,�쓌,5.5,20
2012/6/2,13:00:00,158,��쓌,3.4,8.9,86.7,0,60,0.42,158,��쓌,6.2,42
2012/6/2,14:00:00,158,��쓌,3,8.3,91.9,0,60,0.27,135,�쓌,6.3,45
2012/6/2,15:00:00,180,��,3.8,8.3,88.7,0,60,0.26,180,��,5.9,49
2012/6/2,16:00:00,158,��쓌,3.5,8.2,88.5,0,60,0.21,180,��,6.5,49
2012/6/2,17:00:00,180,��,2,7.9,90.5,0,19,0.12,158,��쓌,5.6,32
2012/6/2,18:00:00,180,��,1.9,7.6,93.2,0,0,0.04,158,��쓌,4,12
2012/6/2,19:00:00,203,��쐼,2.1,7.2,94.5,0,0,0.01,158,��쓌,4.3,28
2012/6/2,20:00:00,158,��쓌,2.1,7,96.1,0,0,0,203,��쐼,3.9,32
2012/6/2,21:00:00,180,��,1.9,7.1,97.3,0,0,0,158,��쓌,4.2,39
2012/6/2,22:00:00,158,��쓌,1.4,7.1,97.9,0,0,0,180,��,3.5,27
2012/6/2,23:00:00,203,��쐼,1,7.1,98.4,0,0,0,158,��쓌,3.2,43
2012/6/2,0:00:00,203,��쐼,1,6.9,98.7,0,0,0,180,��,2.7,15
2012/6/3,1:00:00,45,�k��,0.6,7,99.1,0,0,0,338,�k�k��,2.2,43
2012/6/3,2:00:00,135,�쓌,0.3,6.9,99.2,0.5,0,0,315,�k��,1.5,19
2012/6/3,3:00:00,315,�k��,0.9,6.8,99.2,0,0,0,180,��,2.2,20
2012/6/3,4:00:00,360,�k,0.8,6.6,99.1,0,0,0,293,���k��,2,5
2012/6/3,5:00:00,248,���쐼,1.3,6.8,99,0,0,0.02,270,��,2,26
2012/6/3,6:00:00,293,���k��,1,7.1,99,0,0,0.05,248,���쐼,2.2,10
2012/6/3,7:00:00,293,�É�,0.2,7.7,98.8,0,14,0.1,270,��,2.2,29
2012/6/3,8:00:00,158,��쓌,0.3,8.8,93.3,0,60,0.18,225,�쐼,2.2,47
2012/6/3,9:00:00,158,��쓌,2.3,9.5,89.8,0,60,0.27,180,��,4.1,46
2012/6/3,10:00:00,113,���쓌,2,10,90.8,0,60,0.35,135,�쓌,3.5,33
2012/6/3,11:00:00,158,��쓌,2.2,9.8,95.3,0,60,0.26,135,�쓌,4.1,34
2012/6/3,12:00:00,158,��쓌,2.5,9.4,95.1,0,59,0.23,180,��,4.6,24
2012/6/3,13:00:00,158,��쓌,2.6,10.1,94.6,0,60,0.28,158,��쓌,4.5,57
2012/6/3,14:00:00,158,��쓌,3.1,9.5,95,0,60,0.27,135,�쓌,5.3,1
2012/6/3,15:00:00,158,��쓌,2.9,9.6,94.3,0,60,0.21,158,��쓌,5.1,26
2012/6/3,16:00:00,158,��쓌,2.3,9.5,94.4,0,60,0.14,158,��쓌,5.1,12
2012/6/3,17:00:00,135,�쓌,2.8,9.6,93.8,0,31,0.12,113,���쓌,6.5,57
2012/6/3,18:00:00,113,���쓌,2.9,9.2,94.8,0,0,0.05,135,�쓌,5.6,17
2012/6/3,19:00:00,90,��,3.3,9.1,95.5,0,0,0.01,113,���쓌,5.4,15
2012/6/3,20:00:00,90,��,3.2,9.1,95.2,0,0,0,90,��,5,12
2012/6/3,21:00:00,45,�k��,2.2,9.1,96.1,0,0,0,90,��,4.4,1
2012/6/3,22:00:00,45,�k��,2,8.9,98,0,0,0,45,�k��,4.5,1
2012/6/3,23:00:00,360,�k,0.8,9,98.6,0,0,0,45,�k��,3.2,1
2012/6/3,0:00:00,270,��,0.3,9,98.8,0,0,0,360,�k,1.7,13
2012/6/4,1:00:00,203,�É�,0,9,99,0,0,0,225,�쐼,2.1,35
2012/6/4,2:00:00,338,�k�k��,0.4,9,99.1,0,0,0,293,���k��,7.5,52
2012/6/4,3:00:00,360,�É�,0.1,9,99.1,0,0,0,360,�k,1.5,49
2012/6/4,4:00:00,203,��쐼,0.6,9.2,99,0,0,0,203,��쐼,1,55
2012/6/4,5:00:00,203,�É�,0.2,9.6,98.5,0,0,0.02,270,��,2,10
2012/6/4,6:00:00,180,�É�,0,10.1,96.6,0,0,0.07,225,�쐼,2.1,30
2012/6/4,7:00:00,225,�쐼,0.8,10.5,94,0,46,0.13,248,���쐼,2,25
2012/6/4,8:00:00,158,��쓌,1.4,10,96.7,0,60,0.19,158,��쓌,3,33
2012/6/4,9:00:00,135,�쓌,1.8,10.6,95.9,0,60,0.31,158,��쓌,3,56
2012/6/4,10:00:00,135,�쓌,1.6,11.2,92.1,0,60,0.43,113,���쓌,2.8,33
2012/6/4,11:00:00,113,���쓌,1.6,12.6,86.1,0,60,0.6,135,�쓌,2.9,4
2012/6/4,12:00:00,113,���쓌,2.8,13.1,84.6,0,60,0.64,135,�쓌,4.4,52
2012/6/4,13:00:00,113,���쓌,2.4,13.2,84.6,0,60,0.76,113,���쓌,4.4,1
2012/6/4,14:00:00,90,��,3.1,12.4,88.6,0,60,0.59,90,��,5.6,22
2012/6/4,15:00:00,68,���k��,3.1,12.5,91.4,0,60,0.45,45,�k��,5,18
2012/6/4,16:00:00,68,���k��,2.6,12.2,93.7,0,60,0.31,90,��,4.2,4
2012/6/4,17:00:00,45,�k��,2.5,11.5,95.2,0,51,0.17,45,�k��,4.6,11
2012/6/4,18:00:00,45,�k��,2.8,11,97,0,0,0.07,23,�k�k��,4.7,57
2012/6/4,19:00:00,23,�k�k��,2.2,10.4,98.4,0,0,0.02,45,�k��,4.5,13
2012/6/4,20:00:00,23,�k�k��,2.6,10.1,98.9,0,0,0,23,�k�k��,4.8,14
2012/6/4,21:00:00,23,�k�k��,2.2,10,99.1,0,0,0,23,�k�k��,4.6,11
2012/6/4,22:00:00,360,�k,1,10,99.2,0,0,0,360,�k,3.7,4
2012/6/4,23:00:00,180,�É�,0,9.7,99.3,0,0,0,338,�k�k��,1.9,0
2012/6/4,0:00:00,23,�k�k��,1.1,9.6,99.4,0,0,0,360,�k,1.6,57
2012/6/5,1:00:00,45,�É�,0.2,9.6,99.5,0,0,0,293,���k��,1.6,31
2012/6/5,2:00:00,180,��,0.4,9.3,99.5,0,0,0,225,�쐼,1.9,43
2012/6/5,3:00:00,338,�k�k��,0.5,9.2,99.6,0,0,0,135,�쓌,1.5,6
2012/6/5,4:00:00,270,��,0.9,9.2,99.7,0,0,0,270,��,2.1,41
2012/6/5,5:00:00,225,�쐼,1,9.3,99.7,0,0,0.05,225,�쐼,2.4,44
2012/6/5,6:00:00,225,�쐼,1.6,10.2,99.7,0,20,0.1,225,�쐼,2.4,52
2012/6/5,7:00:00,180,��,0.9,10.3,99.7,0,41,0.16,180,��,2.5,5
2012/6/5,8:00:00,113,���쓌,1.1,10.3,99.7,0,60,0.21,158,��쓌,3.4,18
2012/6/5,9:00:00,158,��쓌,1,10.5,99.5,0,60,0.41,135,�쓌,3.1,23
2012/6/5,10:00:00,113,���쓌,2.3,14.5,86.9,0,60,0.84,113,���쓌,3.4,53
2012/6/5,11:00:00,113,���쓌,2.9,13.5,82.1,0,60,0.93,113,���쓌,5,19
2012/6/5,12:00:00,90,��,3.2,14.7,79.8,0,60,1.04,113,���쓌,4.6,51
2012/6/5,13:00:00,90,��,3.6,14.8,79.8,0,60,0.95,90,��,5.1,58
2012/6/5,14:00:00,90,��,2.9,15,77.5,0,60,0.89,113,���쓌,5.6,38
2012/6/5,15:00:00,90,��,2.6,16.9,73.1,0,60,0.75,68,���k��,3.9,1
2012/6/5,16:00:00,113,���쓌,2.6,15.8,70.9,0,60,0.57,113,���쓌,3.5,57
2012/6/5,17:00:00,68,���k��,1.9,15.5,77.2,0,60,0.35,90,��,3.3,4
2012/6/5,18:00:00,90,��,2.6,12.2,88,0,36,0.14,90,��,3.7,20
2012/6/5,19:00:00,23,�k�k��,0.3,11.4,91.7,0,0,0.02,90,��,4,1
2012/6/5,20:00:00,90,��,0.9,10.1,94.5,0,0,0,113,���쓌,1.5,51
2012/6/5,21:00:00,45,�k��,2.2,9.8,96.1,0,0,0,23,�k�k��,3.3,54
2012/6/5,22:00:00,45,�k��,2.3,9.9,95.2,0,0,0,45,�k��,4.3,25
2012/6/5,23:00:00,23,�k�k��,1.9,9.3,95.1,0,0,0,45,�k��,3.6,32
2012/6/5,0:00:00,293,���k��,0.8,8.3,97.7,0,0,0,360,�k,2.5,7
2012/6/6,1:00:00,270,��,1,7.7,97.8,0,0,0,293,���k��,1.7,33
2012/6/6,2:00:00,45,�k��,1.3,7.4,98.5,0,0,0,45,�k��,2,57
2012/6/6,3:00:00,23,�k�k��,0.8,8.7,99.1,0,0,0,45,�k��,2.4,1
2012/6/6,4:00:00,293,���k��,1.2,7.2,99.1,0,0,0.01,23,�k�k��,2.5,0
2012/6/6,5:00:00,225,�É�,0,8.1,99.4,0,2,0.07,293,���k��,2.7,39
2012/6/6,6:00:00,135,�쓌,1.6,10.4,99.2,0,46,0.19,135,�쓌,3.8,59
2012/6/6,7:00:00,68,���k��,1.7,9.4,99.2,0,29,0.15,135,�쓌,3.4,0
2012/6/6,8:00:00,68,���k��,1.6,13,94.7,0,60,0.42,23,�k�k��,3.4,14
2012/6/6,9:00:00,68,���k��,4.5,10.9,94.7,0,60,0.46,90,��,7.6,18
2012/6/6,10:00:00,90,��,4.7,11.9,85.7,0,60,0.67,90,��,7.2,55
2012/6/6,11:00:00,90,��,3.5,15,81.5,0,60,0.82,90,��,6.5,0
2012/6/6,12:00:00,68,���k��,4.5,12.7,86.6,0,60,0.49,68,���k��,6.7,43
2012/6/6,13:00:00,68,���k��,3.6,11.5,94.8,0,60,0.3,90,��,6.8,1
2012/6/6,14:00:00,90,��,2.8,11.9,96,0,60,0.26,68,���k��,5.7,2
2012/6/6,15:00:00,68,���k��,2.5,12.3,97.7,0,60,0.21,68,���k��,4.6,41
2012/6/6,16:00:00,68,���k��,3.7,12.3,97.6,0,57,0.17,68,���k��,5.5,43
2012/6/6,17:00:00,68,���k��,2.7,11.1,98.7,0,0,0.07,68,���k��,5.3,8
2012/6/6,18:00:00,68,���k��,1.8,11.4,99.2,0,0,0.05,68,���k��,4.6,6
2012/6/6,19:00:00,68,���k��,2.5,11.2,99.3,0,0,0.01,68,���k��,5.6,19
2012/6/6,20:00:00,45,�k��,2.9,11.1,99.4,0,0,0,68,���k��,5,21
2012/6/6,21:00:00,68,���k��,1.7,11.6,99.5,0,0,0,45,�k��,4.2,18
2012/6/6,22:00:00,23,�k�k��,1.3,11.6,99.6,0.5,0,0,45,�k��,3.5,28
2012/6/6,23:00:00,113,���쓌,2.2,11.4,99.6,0,0,0,113,���쓌,3,56
2012/6/6,0:00:00,23,�k�k��,1,11.3,99.7,0.5,0,0,45,�k��,3.7,17
2012/6/7,1:00:00,315,�k��,0.9,11.7,99.7,0,0,0,360,�k,1.6,5
2012/6/7,2:00:00,315,�k��,0.4,11.9,99.7,0,0,0,293,���k��,1.3,36
2012/6/7,3:00:00,315,�k��,0.9,12.3,99.7,0,0,0,338,�k�k��,1.6,4
2012/6/7,4:00:00,90,��,1.9,11.3,99.7,0,0,0,90,��,2.4,54
2012/6/7,5:00:00,45,�k��,1.1,11.6,99.7,0,0,0.01,90,��,2.3,10
2012/6/7,6:00:00,270,�É�,0,12.6,99.7,0,0,0.04,45,�k��,1.1,1
2012/6/7,7:00:00,68,���k��,1.2,13.4,99.7,0,5,0.08,45,�k��,2,50
2012/6/7,8:00:00,293,���k��,1.7,14.3,99.6,0,60,0.19,293,���k��,2.6,57
2012/6/7,9:00:00,23,�k�k��,1.4,16.9,93.9,0,60,0.35,338,�k�k��,3.2,51
2012/6/7,10:00:00,113,���쓌,4.3,16,90.9,0,60,0.47,113,���쓌,5.5,57
2012/6/7,11:00:00,113,���쓌,4.4,16.1,84.2,0,60,0.67,90,��,6.4,33
2012/6/7,12:00:00,90,��,4.6,16.2,83.4,0,60,0.91,90,��,6.9,6
2012/6/7,13:00:00,158,��쓌,2.4,16.7,73.4,0,60,0.99,90,��,6.1,15
2012/6/7,14:00:00,135,�쓌,1.4,18.1,66.5,0,60,0.9,113,���쓌,4.4,0
2012/6/7,15:00:00,158,��쓌,3.2,15.9,75.6,0,60,0.75,135,�쓌,5.3,55
2012/6/7,16:00:00,180,��,2.4,14,85.2,0,54,0.33,135,�쓌,5.5,0
2012/6/7,17:00:00,180,��,1.8,13,91.9,0,12,0.09,180,��,4.2,31
2012/6/7,18:00:00,180,��,1.3,12.1,94.8,0,0,0.04,203,��쐼,3.5,0
2012/6/7,19:00:00,225,�쐼,1.3,11.8,96.8,0,0,0.01,203,��쐼,3.2,24
2012/6/7,20:00:00,203,��쐼,1.6,11.7,97.6,0,0,0,225,�쐼,3.4,2
2012/6/7,21:00:00,180,��,1.5,11.1,98.5,0,0,0,158,��쓌,2.8,19
2012/6/7,22:00:00,158,��쓌,1.4,10.8,98.8,0,0,0,180,��,2.9,10
2012/6/7,23:00:00,135,�쓌,1,10.6,99.1,0,0,0,158,��쓌,3.2,1
2012/6/7,0:00:00,113,���쓌,1.2,10.4,99.4,0.5,0,0,135,�쓌,2.8,20
2012/6/8,1:00:00,113,���쓌,0.8,10.4,99.5,0.5,0,0,113,���쓌,2.2,4
2012/6/8,2:00:00,158,��쓌,0.7,10.9,99.6,0.5,0,0,180,��,2.5,47
2012/6/8,3:00:00,315,�k��,0.4,11.4,99.6,0,0,0,180,��,2.1,22
2012/6/8,4:00:00,90,��,1.7,10.7,99.5,0,0,0,68,���k��,2.8,28
2012/6/8,5:00:00,68,���k��,0.5,11,99.6,0,0,0.02,113,���쓌,1.8,19
2012/6/8,6:00:00,45,�k��,0.8,11.4,99.6,0,0,0.07,68,���k��,1.5,27
2012/6/8,7:00:00,90,��,1.8,12.5,99.6,0,58,0.17,113,���쓌,2.3,50
2012/6/8,8:00:00,90,��,2.1,11.9,99.5,0,60,0.17,90,��,2.8,48
2012/6/8,9:00:00,90,��,2.2,12.7,99.1,0,60,0.29,68,���k��,3.3,33
2012/6/8,10:00:00,90,��,2.7,12.9,97.6,0,60,0.37,113,���쓌,4.4,56
2012/6/8,11:00:00,113,���쓌,3.2,13.1,92.2,0,60,0.49,90,��,4.9,36
2012/6/8,12:00:00,113,���쓌,2.6,13.9,89.1,0,60,0.61,90,��,4.9,33
2012/6/8,13:00:00,158,��쓌,2.4,13.3,89.9,0,60,0.65,158,��쓌,4.4,41
2012/6/8,14:00:00,135,�쓌,2.5,13,91.2,0,60,0.46,135,�쓌,4.1,12
2012/6/8,15:00:00,158,��쓌,2.2,12.6,90.8,0,60,0.38,113,���쓌,3.9,44
2012/6/8,16:00:00,113,���쓌,1.8,12.1,95.2,0,49,0.19,135,�쓌,3.8,9
2012/6/8,17:00:00,113,���쓌,1.3,11.6,98.2,0,0,0.07,135,�쓌,2.3,1
2012/6/8,18:00:00,68,���k��,1.6,11,98.9,0,0,0.02,90,��,2.7,15
2012/6/8,19:00:00,45,�k��,2.3,10.6,99.2,0.5,0,0.01,68,���k��,3.4,51
2012/6/8,20:00:00,90,��,1.2,10.9,99.4,0,0,0,68,���k��,3.8,5
2012/6/8,21:00:00,68,���k��,2.2,10.7,99.4,0,0,0,45,�k��,3,54
2012/6/8,22:00:00,45,�k��,1.9,10.7,99.3,0,0,0,45,�k��,3,49
2012/6/8,23:00:00,45,�k��,1.3,10.7,99.1,0,0,0,68,���k��,2.9,11
2012/6/8,0:00:00,45,�k��,1,10.8,99.2,0,0,0,68,���k��,2.3,31
2012/6/9,1:00:00,45,�k��,1.5,10.6,99.3,0,0,0,68,���k��,2.6,43
2012/6/9,2:00:00,45,�k��,1.8,10.5,99.1,0,0,0,68,���k��,3,21
2012/6/9,3:00:00,45,�k��,1.4,10.4,98.9,0,0,0,68,���k��,3.5,10
2012/6/9,4:00:00,45,�k��,1.9,10.4,98.6,0,0,0,23,�k�k��,2.6,50
2012/6/9,5:00:00,90,��,1.1,10.8,98.3,0,0,0.03,45,�k��,2.6,0
2012/6/9,6:00:00,23,�k�k��,0.8,11.5,96.7,0,14,0.09,23,�k�k��,1.5,59
2012/6/9,7:00:00,90,��,1,12.3,94.2,0,59,0.19,113,���쓌,2.4,57
2012/6/9,8:00:00,90,��,2.9,12.6,90.6,0,60,0.32,90,��,4,55
2012/6/9,9:00:00,90,��,2.7,13.2,90.8,0,60,0.33,90,��,4.3,5
2012/6/9,10:00:00,90,��,3.2,13.2,89,0,60,0.38,90,��,4.6,55
2012/6/9,11:00:00,90,��,3.5,14.1,83.5,0,60,0.66,90,��,5.7,34
2012/6/9,12:00:00,90,��,2.8,14.2,83.5,0,60,0.49,90,��,5.3,5
2012/6/9,13:00:00,68,���k��,3.5,13.4,86,0,60,0.44,68,���k��,5.1,59
2012/6/9,14:00:00,68,���k��,3.7,13.5,81.6,0,60,0.37,90,��,5.2,54
2012/6/9,15:00:00,68,���k��,3.1,12.8,87.3,0,60,0.29,90,��,4.9,18
2012/6/9,16:00:00,68,���k��,3.3,11.4,89.4,0,29,0.12,68,���k��,5,56
2012/6/9,17:00:00,68,���k��,3.1,10.4,97.1,0.5,0,0.04,90,��,5.4,16
2012/6/9,18:00:00,45,�k��,3.1,10.5,98.2,0.5,0,0.02,68,���k��,5.1,2
2012/6/9,19:00:00,45,�k��,3.3,10.4,98.5,1,0,0.01,68,���k��,4.9,34
2012/6/9,20:00:00,68,���k��,2.6,10.6,98.7,0.5,0,0,45,�k��,5,12
2012/6/9,21:00:00,45,�k��,2.1,10.4,98.8,0.5,0,0,45,�k��,4.3,28
2012/6/9,22:00:00,23,�k�k��,1.5,10.5,98.8,0.5,0,0,45,�k��,3.2,3
2012/6/9,23:00:00,360,�k,0.7,10.7,98.7,0.5,0,0,23,�k�k��,2.3,8
2012/6/9,0:00:00,23,�k�k��,0.9,10.8,98.8,0.5,0,0,23,�k�k��,1.6,0
2012/6/10,1:00:00,45,�k��,1.8,10.8,98.8,0.5,0,0,68,���k��,3.6,53
2012/6/10,2:00:00,45,�k��,1.2,10.6,98.8,1,0,0,68,���k��,3.7,31
2012/6/10,3:00:00,23,�k�k��,1.8,10.6,98.8,0.5,0,0,45,�k��,3.6,31
2012/6/10,4:00:00,360,�k,1.6,10.7,98.7,0,0,0,23,�k�k��,3.4,38
2012/6/10,5:00:00,23,�k�k��,1.8,10.7,98.9,0,0,0.01,23,�k�k��,3.5,27
2012/6/10,6:00:00,23,�k�k��,2.3,10.7,99.2,0,0,0.03,23,�k�k��,3.8,49
2012/6/10,7:00:00,23,�k�k��,2.1,11.2,99.4,0,0,0.05,23,�k�k��,3.8,59
2012/6/10,8:00:00,45,�k��,2.2,11.7,99.2,0,0,0.07,23,�k�k��,3.8,7
2012/6/10,9:00:00,68,���k��,2.1,11.2,98.9,0,24,0.12,45,�k��,3.6,44
2012/6/10,10:00:00,68,���k��,2.1,11.1,99.1,0,0,0.09,68,���k��,3.3,58
2012/6/10,11:00:00,68,���k��,1.8,11.5,99.3,0,10,0.1,68,���k��,3.7,6
2012/6/10,12:00:00,68,���k��,2.6,11.8,99.1,0,60,0.19,90,��,4.2,48
2012/6/10,13:00:00,68,���k��,3.1,10.9,98.1,0,60,0.18,68,���k��,5.3,25
2012/6/10,14:00:00,68,���k��,2.8,11.1,98.9,0,52,0.14,45,�k��,4.6,13
2012/6/10,15:00:00,68,���k��,2.4,11.4,98.8,0,60,0.2,90,��,4.1,2
2012/6/10,16:00:00,68,���k��,1.9,12.2,98.7,0,44,0.15,68,���k��,3.4,10
2012/6/10,17:00:00,68,���k��,2.2,11.9,97.5,0,1,0.08,45,�k��,3.4,29
2012/6/10,18:00:00,23,�k�k��,2.2,11.8,98.5,0,0,0.04,23,�k�k��,3.7,54
2012/6/10,19:00:00,23,�k�k��,2.4,11.4,98.9,0,0,0.01,45,�k��,4,58
2012/6/10,20:00:00,23,�k�k��,1.3,11.3,99.3,0,0,0,45,�k��,3.5,1
2012/6/10,21:00:00,68,���k��,1.9,10.3,99.4,0,0,0,68,���k��,2.8,56
2012/6/10,22:00:00,68,���k��,1.4,10.4,99.6,0.5,0,0,68,���k��,2.8,30
2012/6/10,23:00:00,360,�k,0.4,10.6,99.6,0,0,0,45,�k��,2.3,13
2012/6/10,0:00:00,23,�k�k��,1.5,10.6,99.6,0,0,0,23,�k�k��,2.1,53
2012/6/11,1:00:00,45,�k��,1.5,10.6,99.7,0,0,0,23,�k�k��,2.4,35
2012/6/11,2:00:00,45,�k��,1.5,10.6,99.7,0,0,0,45,�k��,2.3,54
2012/6/11,3:00:00,90,��,1.6,10.5,99.7,0,0,0,68,���k��,2.5,49
2012/6/11,4:00:00,45,�k��,0.4,10.5,99.8,0,0,0,68,���k��,1.8,1
2012/6/11,5:00:00,45,�k��,0.7,10.8,99.8,0,0,0.01,45,�k��,1.3,51
2012/6/11,6:00:00,23,�k�k��,0.4,10.8,99.8,0.5,0,0.04,68,���k��,2.3,23
2012/6/11,7:00:00,315,�k��,0.4,11.3,99.9,0,0,0.08,315,�k��,1.3,30
2012/6/11,8:00:00,90,��,0.3,11.9,99.8,0,6,0.1,45,�k��,1.7,35
2012/6/11,9:00:00,270,��,1.2,12.8,99.6,0,60,0.21,270,��,2.3,59
2012/6/11,10:00:00,338,�k�k��,0.9,14.8,95.9,0,60,0.24,293,���k��,3.2,26
2012/6/11,11:00:00,23,�k�k��,1.9,17.5,83.8,0,60,0.5,338,�k�k��,4.1,55
2012/6/11,12:00:00,135,�쓌,2.3,15,93,0,60,0.61,135,�쓌,4.7,44
2012/6/11,13:00:00,113,���쓌,2.5,14.5,87.5,0,60,0.69,135,�쓌,4.8,22
2012/6/11,14:00:00,113,���쓌,1.9,15.3,82.5,0,60,0.54,113,���쓌,4.4,34
2012/6/11,15:00:00,135,�쓌,2.5,14.6,84.2,0,60,0.35,113,���쓌,4.3,56
2012/6/11,16:00:00,158,��쓌,1.9,13.4,87.3,0,60,0.29,113,���쓌,4.2,9
2012/6/11,17:00:00,135,�쓌,1,13.4,84.7,0,35,0.14,158,��쓌,2.5,10
2012/6/11,18:00:00,113,���쓌,1.1,12.2,82.7,0,0,0.05,180,��,3.1,23
2012/6/11,19:00:00,113,���쓌,1.4,11.6,87.9,0,0,0.01,113,���쓌,3.4,18
2012/6/11,20:00:00,135,�쓌,1.9,11.2,86,0,0,0,113,���쓌,3.2,58
2012/6/11,21:00:00,113,���쓌,2.8,10,86.3,0,0,0,135,�쓌,4.3,51
2012/6/11,22:00:00,90,��,1.7,9,89,0,0,0,90,��,5.3,6
2012/6/11,23:00:00,158,��쓌,0.5,8.8,90.4,0,0,0,68,���k��,2.5,21
2012/6/11,0:00:00,90,��,2.5,8.2,88.4,0,0,0,90,��,4.4,44
2012/6/12,1:00:00,68,���k��,2.4,7.9,88.7,0,0,0,90,��,5.2,20
2012/6/12,2:00:00,68,���k��,2.3,7.6,88.6,0,0,0,68,���k��,3.8,51
2012/6/12,3:00:00,45,�k��,0.8,7.7,90.5,0,0,0,68,���k��,2.4,21
2012/6/12,4:00:00,68,���k��,0.7,7.6,89.8,0,0,0,45,�k��,1.2,52
2012/6/12,5:00:00,68,���k��,1.2,7.4,90,0,0,0.01,68,���k��,2.4,35
2012/6/12,6:00:00,68,���k��,1.4,7.8,87.2,0,0,0.05,90,��,2.6,8
2012/6/12,7:00:00,113,���쓌,1.7,8,87.4,0,24,0.11,113,���쓌,2.7,53
2012/6/12,8:00:00,113,���쓌,2.5,7.8,86,0,43,0.13,90,��,3.8,52
2012/6/12,9:00:00,90,��,3,8.4,84.9,0,59,0.21,113,���쓌,4.7,44
2012/6/12,10:00:00,90,��,2.7,9.1,82.7,0,60,0.34,90,��,4.9,8
2012/6/12,11:00:00,90,��,2.9,10.6,79.7,0,60,0.6,113,���쓌,5.5,55
2012/6/12,12:00:00,135,�쓌,2.6,9.8,78.5,0,60,0.69,113,���쓌,6.1,16
2012/6/12,13:00:00,158,��쓌,3.3,10.3,77.1,0,60,0.75,113,���쓌,6.1,46
2012/6/12,14:00:00,135,�쓌,2.9,10.9,77.5,0,60,0.9,135,�쓌,6.4,39
2012/6/12,15:00:00,135,�쓌,3.2,10.4,75.8,0,60,0.78,113,���쓌,6.3,10
2012/6/12,16:00:00,135,�쓌,2.9,9.4,77.6,0,60,0.57,180,��,5.7,19
2012/6/12,17:00:00,135,�쓌,2.3,8.8,82,0,60,0.32,113,���쓌,5,18
2012/6/12,18:00:00,113,���쓌,2.9,8.2,84.6,0,36,0.15,113,���쓌,5.1,34
2012/6/12,19:00:00,135,�쓌,1.7,7.9,84.8,0,0,0.05,113,���쓌,4,8
2012/6/12,20:00:00,113,���쓌,1.8,7.8,85.6,0,0,0,90,��,4.5,59
2012/6/12,21:00:00,113,���쓌,1,7.8,87,0,0,0,90,��,4.9,4
2012/6/12,22:00:00,90,��,1.5,7.7,89.2,0,0,0,90,��,2.5,55
2012/6/12,23:00:00,68,���k��,1.5,7.5,89.5,0,0,0,68,���k��,3,19
2012/6/12,0:00:00,68,���k��,1.7,7.4,88.4,0,0,0,68,���k��,3.1,35
2012/6/13,1:00:00,68,���k��,1.2,7.3,89.7,0,0,0,68,���k��,2.6,0
2012/6/13,2:00:00,68,���k��,2.2,6.9,92.8,0,0,0,68,���k��,3.5,45
2012/6/13,3:00:00,68,���k��,2,7,92.2,0,0,0,45,�k��,3.4,52
2012/6/13,4:00:00,45,�k��,1.8,7,92,0,0,0,68,���k��,3,37
2012/6/13,5:00:00,45,�k��,1.3,7.3,90.6,0,0,0.01,68,���k��,2.8,21
2012/6/13,6:00:00,68,���k��,2.8,7.7,86.3,0,0,0.07,68,���k��,4.3,44
2012/6/13,7:00:00,68,���k��,3.5,7.5,84.6,0,7,0.1,68,���k��,5.7,47
2012/6/13,8:00:00,68,���k��,3.4,8.1,84.2,0,58,0.2,90,��,6.1,36
2012/6/13,9:00:00,90,��,4.2,8.5,81,0,60,0.32,90,��,6.4,13
2012/6/13,10:00:00,90,��,4.8,8.8,78.2,0,60,0.5,90,��,7.1,52
2012/6/13,11:00:00,90,��,3.8,8.8,78.9,0,60,0.35,90,��,7.1,11
2012/6/13,12:00:00,68,���k��,4.4,8.8,77.5,0,60,0.47,90,��,7.6,37
2012/6/13,13:00:00,68,���k��,4.1,8.8,77.2,0,60,0.44,90,��,6.6,44
2012/6/13,14:00:00,90,��,4.1,9.4,76.3,0,60,0.54,68,���k��,8,9
2012/6/13,15:00:00,90,��,3.9,8.8,76.5,0,60,0.43,90,��,6.4,16
2012/6/13,16:00:00,90,��,3.8,8.6,80.5,0,60,0.31,113,���쓌,6.5,18
2012/6/13,17:00:00,90,��,2.5,8.1,80.2,0,49,0.15,90,��,5,10
2012/6/13,18:00:00,68,���k��,2.5,7.9,78,0,14,0.09,45,�k��,4.2,24
2012/6/13,19:00:00,90,��,3.6,7.5,78.6,0,0,0.02,90,��,4.6,49
2012/6/13,20:00:00,68,���k��,2.3,7.2,84.3,0,0,0,90,��,3.8,45
2012/6/13,21:00:00,90,��,2.5,7.4,79.2,0,0,0,113,���쓌,3.9,47
2012/6/13,22:00:00,293,���k��,0.7,7,87.3,0,0,0,90,��,3.1,0
2012/6/13,23:00:00,315,�k��,0.8,6.9,88.4,0,0,0,270,��,3.4,3
2012/6/13,0:00:00,315,�k��,0.4,6.9,90.9,0,0,0,315,�k��,1.5,45
2012/6/14,1:00:00,360,�k,0.6,6.8,91.6,0,0,0,315,�k��,1.4,57
2012/6/14,2:00:00,293,�É�,0.1,6.9,90.8,0,0,0,360,�k,8,32
2012/6/14,3:00:00,338,�k�k��,0.6,6.8,92.1,0,0,0,315,�k��,2.5,37
2012/6/14,4:00:00,338,�k�k��,0.8,6.9,89.4,0,0,0,113,���쓌,2.1,34
2012/6/14,5:00:00,293,���k��,0.3,7.1,88.8,0,0,0.02,293,���k��,2.4,40
2012/6/14,6:00:00,270,��,0.4,7.4,84.4,0,0,0.06,293,���k��,2,49
2012/6/14,7:00:00,360,�k,0.5,8.1,83.2,0,26,0.12,315,�k��,2,4
2012/6/14,8:00:00,180,��,1.7,8.3,76.5,0,60,0.19,180,��,2.8,24
2012/6/14,9:00:00,293,���k��,1.2,9.4,76.7,0,60,0.43,180,��,3.7,14
2012/6/14,10:00:00,158,��쓌,2.5,9.8,76.1,0,60,0.42,158,��쓌,4.5,55
2012/6/14,11:00:00,135,�쓌,2.8,10.9,71.1,0,60,0.58,135,�쓌,4.6,58
2012/6/14,12:00:00,135,�쓌,2.9,10.7,68.1,0,60,0.97,113,���쓌,5.7,46
2012/6/14,13:00:00,135,�쓌,3.3,10.6,74.7,0,60,0.84,158,��쓌,6,53
2012/6/14,14:00:00,135,�쓌,4,10.7,73.9,0,60,0.92,113,���쓌,6.1,48
2012/6/14,15:00:00,135,�쓌,3.2,11.5,76.5,0,60,0.71,135,�쓌,6,50
2012/6/14,16:00:00,135,�쓌,3.3,10.8,79.7,0,60,0.58,158,��쓌,6.3,12
2012/6/14,17:00:00,135,�쓌,2.4,9.6,85.3,0,60,0.22,158,��쓌,5.7,5
2012/6/14,18:00:00,135,�쓌,1.3,9.3,87.6,0,0,0.08,158,��쓌,3.6,8
2012/6/14,19:00:00,180,��,1.1,9.1,88.4,0,0,0.02,203,��쐼,3.4,4
2012/6/14,20:00:00,203,��쐼,1.2,9.2,88.1,0,0,0,180,��,2.8,13
2012/6/14,21:00:00,180,��,1,9.3,88.7,0,0,0,135,�쓌,3.5,44
2012/6/14,22:00:00,180,��,1.3,9.3,89.3,0,0,0,158,��쓌,3.2,35
2012/6/14,23:00:00,225,�쐼,1.3,9.2,89.7,0,0,0,225,�쐼,3,29
2012/6/14,0:00:00,203,��쐼,0.8,9.1,91,0,0,0,225,�쐼,2.1,0
2012/6/15,1:00:00,270,��,0.3,9.1,91.4,0,0,0,270,��,1.5,25
2012/6/15,2:00:00,225,�쐼,1.1,8.7,92.5,0,0,0,225,�쐼,1.8,57
2012/6/15,3:00:00,293,���k��,0.8,8.4,94.1,0,0,0,180,��,1.7,17
2012/6/15,4:00:00,293,���k��,1,8.4,95,0,0,0.01,270,��,1.8,50
2012/6/15,5:00:00,360,�k,1.1,8.4,95.4,0,0,0.03,23,�k�k��,2.4,50
2012/6/15,6:00:00,338,�k�k��,1.5,8.5,94.4,0,5,0.08,315,�k��,3,42
2012/6/15,7:00:00,293,���k��,0.8,9.4,92.5,0,60,0.19,360,�k,2.5,3
2012/6/15,8:00:00,90,��,0.9,10.7,87.1,0,60,0.32,90,��,2.3,51
2012/6/15,9:00:00,135,�쓌,2,11.6,84.2,0,60,0.55,135,�쓌,3.3,50
2012/6/15,10:00:00,135,�쓌,2.6,12.9,82.7,0,60,0.9,180,��,4.8,27
2012/6/15,11:00:00,135,�쓌,3,13.2,76.3,0,60,1.01,135,�쓌,5.3,59
2012/6/15,12:00:00,158,��쓌,3.2,14,76.1,0,60,1.04,135,�쓌,6,25
2012/6/15,13:00:00,158,��쓌,3.8,13.7,74,0,60,0.99,135,�쓌,6.8,58
2012/6/15,14:00:00,158,��쓌,4.2,13.8,71.4,0,60,0.9,158,��쓌,9.1,19
2012/6/15,15:00:00,158,��쓌,3.7,13.2,73.5,0,60,0.75,158,��쓌,9,36
2012/6/15,16:00:00,158,��쓌,3.2,13.4,75.7,0,60,0.58,135,�쓌,8.1,5
2012/6/15,17:00:00,158,��쓌,2.6,12.2,78.8,0,60,0.39,158,��쓌,6.6,0
2012/6/15,18:00:00,158,��쓌,1.6,11.7,84.8,0,54,0.2,158,��쓌,5.9,4
2012/6/15,19:00:00,180,��,1.2,10.7,88.9,0,1,0.05,158,��쓌,3.6,9
2012/6/15,20:00:00,23,�k�k��,2.1,8.6,94.6,0,0,0,45,�k��,2.6,59
2012/6/15,21:00:00,360,�k,1.8,8.4,95.9,0,0,0,23,�k�k��,3.5,15
2012/6/15,22:00:00,360,�k,2.4,8.9,96.6,0,0,0,23,�k�k��,3.7,49
2012/6/15,23:00:00,338,�k�k��,0.7,8.7,96.9,0,0,0,360,�k,3.4,1
2012/6/15,0:00:00,338,�k�k��,1.5,8.9,97.7,0,0,0,315,�k��,2.5,47
2012/6/16,1:00:00,338,�k�k��,0.9,8.8,97.7,0,0,0,315,�k��,2.6,36
2012/6/16,2:00:00,113,�É�,0.2,8.2,97.6,0,0,0,248,���쐼,2.1,14
2012/6/16,3:00:00,360,�k,0.5,8,98.6,0,0,0,270,��,1.2,37
2012/6/16,4:00:00,315,�É�,0.1,7.6,98.7,0,0,0,338,�k�k��,3,45
2012/6/16,5:00:00,315,�k��,1.2,8.4,98.9,0,0,0.04,293,���k��,2,42
2012/6/16,6:00:00,360,�k,0.6,10,96.4,0,21,0.11,315,�k��,2.5,14
2012/6/16,7:00:00,45,�k��,0.6,11.3,94.9,0,60,0.17,23,�k�k��,1.4,59
2012/6/16,8:00:00,113,���쓌,1.2,12.2,91.4,0,60,0.28,135,�쓌,2.9,42
2012/6/16,9:00:00,113,���쓌,1.9,13.5,86.5,0,60,0.4,113,���쓌,2.8,54
2012/6/16,10:00:00,113,���쓌,2.4,12.9,88.4,0,60,0.59,90,��,4.5,37
2012/6/16,11:00:00,90,��,2.5,12.5,90.9,0,60,0.49,90,��,3.7,48
2012/6/16,12:00:00,90,��,2.3,11.5,96.5,0,60,0.22,113,���쓌,3.7,14
2012/6/16,13:00:00,68,���k��,3.5,11.7,95.6,0,60,0.19,68,���k��,5.2,56
2012/6/16,14:00:00,90,��,2.9,13.1,94.3,0,60,0.28,90,��,4.5,42
2012/6/16,15:00:00,113,���쓌,2.2,14.3,89.1,0,60,0.41,113,���쓌,4.4,57